Year,Month,Day,Hour,Minute,Value (Times are PST for temperature in C)
2012,06,24,00,00,6.70
2012,06,24,00,01,6.70
2012,06,24,00,02,6.70
2012,06,24,00,03,6.70
2012,06,24,00,04,6.70
2012,06,24,00,05,6.60
2012,06,24,00,06,6.60
2012,06,24,00,07,6.60
2012,06,24,00,08,6.60
2012,06,24,00,09,6.60
2012,06,24,00,10,6.60
2012,06,24,00,11,6.60
2012,06,24,00,12,6.60
2012,06,24,00,13,6.60
2012,06,24,00,14,6.60
2012,06,24,00,15,6.60
2012,06,24,00,16,6.60
2012,06,24,00,17,6.60
2012,06,24,00,18,6.60
2012,06,24,00,19,6.60
2012,06,24,00,20,6.60
2012,06,24,00,21,6.60
2012,06,24,00,22,6.60
2012,06,24,00,23,6.60
2012,06,24,00,24,6.50
2012,06,24,00,25,6.50
2012,06,24,00,26,6.40
2012,06,24,00,27,6.40
2012,06,24,00,28,6.40
2012,06,24,00,29,6.40
2012,06,24,00,30,6.40
2012,06,24,00,31,6.40
2012,06,24,00,32,6.40
2012,06,24,00,33,6.40
2012,06,24,00,34,6.40
2012,06,24,00,35,6.40
2012,06,24,00,36,6.40
2012,06,24,00,37,6.40
2012,06,24,00,38,6.40
2012,06,24,00,39,6.40
2012,06,24,00,40,6.40
2012,06,24,00,41,6.40
2012,06,24,00,42,6.40
2012,06,24,00,43,6.40
2012,06,24,00,44,6.40
2012,06,24,00,45,6.40
2012,06,24,00,46,6.40
2012,06,24,00,47,6.40
2012,06,24,00,48,6.40
2012,06,24,00,49,6.40
2012,06,24,00,50,6.40
2012,06,24,00,51,6.40
2012,06,24,00,52,6.40
2012,06,24,00,53,6.40
2012,06,24,00,54,6.40
2012,06,24,00,55,6.40
2012,06,24,00,56,6.40
2012,06,24,00,57,6.40
2012,06,24,00,58,6.40
2012,06,24,00,59,6.40
2012,06,24,01,00,6.30
2012,06,24,01,01,6.30
2012,06,24,01,02,6.30
2012,06,24,01,03,6.30
2012,06,24,01,04,6.30
2012,06,24,01,05,6.30
2012,06,24,01,06,6.20
2012,06,24,01,07,6.20
2012,06,24,01,08,6.20
2012,06,24,01,09,6.20
2012,06,24,01,10,6.20
2012,06,24,01,11,6.20
2012,06,24,01,12,6.20
2012,06,24,01,13,6.20
2012,06,24,01,14,6.20
2012,06,24,01,15,6.20
2012,06,24,01,16,6.20
2012,06,24,01,17,6.20
2012,06,24,01,18,6.20
2012,06,24,01,19,6.20
2012,06,24,01,20,6.20
2012,06,24,01,21,6.20
2012,06,24,01,22,6.20
2012,06,24,01,23,6.20
2012,06,24,01,24,6.20
2012,06,24,01,25,6.20
2012,06,24,01,26,6.20
2012,06,24,01,27,6.20
2012,06,24,01,28,6.20
2012,06,24,01,29,6.20
2012,06,24,01,30,6.20
2012,06,24,01,31,6.20
2012,06,24,01,32,6.20
2012,06,24,01,33,6.10
2012,06,24,01,34,6.10
2012,06,24,01,35,6.10
2012,06,24,01,36,6.10
2012,06,24,01,37,6.10
2012,06,24,01,38,6.10
2012,06,24,01,39,6.10
2012,06,24,01,40,6.10
2012,06,24,01,41,6.10
2012,06,24,01,42,6.10
2012,06,24,01,43,6.10
2012,06,24,01,44,6.10
2012,06,24,01,45,6.00
2012,06,24,01,46,6.00
2012,06,24,01,47,6.00
2012,06,24,01,48,6.00
2012,06,24,01,49,6.00
2012,06,24,01,50,6.00
2012,06,24,01,51,6.00
2012,06,24,01,52,5.90
2012,06,24,01,53,5.90
2012,06,24,01,54,5.90
2012,06,24,01,55,5.90
2012,06,24,01,56,5.90
2012,06,24,01,57,5.90
2012,06,24,01,58,5.90
2012,06,24,01,59,5.90
2012,06,24,02,00,5.90
2012,06,24,02,01,5.90
2012,06,24,02,02,5.90
2012,06,24,02,03,5.90
2012,06,24,02,04,5.90
2012,06,24,02,05,5.90
2012,06,24,02,06,5.90
2012,06,24,02,07,5.90
2012,06,24,02,08,5.90
2012,06,24,02,09,5.90
2012,06,24,02,10,5.90
2012,06,24,02,11,5.90
2012,06,24,02,12,5.90
2012,06,24,02,13,5.90
2012,06,24,02,14,6.00
2012,06,24,02,15,6.00
2012,06,24,02,16,6.00
2012,06,24,02,17,6.00
2012,06,24,02,18,6.00
2012,06,24,02,19,6.00
2012,06,24,02,20,6.00
2012,06,24,02,21,6.00
2012,06,24,02,22,6.10
2012,06,24,02,23,6.10
2012,06,24,02,24,6.10
2012,06,24,02,25,6.10
2012,06,24,02,26,6.10
2012,06,24,02,27,6.10
2012,06,24,02,28,6.10
2012,06,24,02,29,6.10
2012,06,24,02,30,6.10
2012,06,24,02,31,6.10
2012,06,24,02,32,6.10
2012,06,24,02,33,6.10
2012,06,24,02,34,6.10
2012,06,24,02,35,6.10
2012,06,24,02,36,6.10
2012,06,24,02,37,6.00
2012,06,24,02,38,6.00
2012,06,24,02,39,6.00
2012,06,24,02,40,6.00
2012,06,24,02,41,6.00
2012,06,24,02,42,6.00
2012,06,24,02,43,6.00
2012,06,24,02,44,6.00
2012,06,24,02,45,6.00
2012,06,24,02,46,6.00
2012,06,24,02,47,6.00
2012,06,24,02,48,6.00
2012,06,24,02,49,6.00
2012,06,24,02,50,6.00
2012,06,24,02,51,6.00
2012,06,24,02,52,6.00
2012,06,24,02,53,6.00
2012,06,24,02,54,6.00
2012,06,24,02,55,6.00
2012,06,24,02,56,6.00
2012,06,24,02,57,6.00
2012,06,24,02,58,6.00
2012,06,24,02,59,6.00
2012,06,24,03,00,6.00
2012,06,24,03,01,6.00
2012,06,24,03,02,6.00
2012,06,24,03,03,6.00
2012,06,24,03,04,6.00
2012,06,24,03,05,6.00
2012,06,24,03,06,5.90
2012,06,24,03,07,5.90
2012,06,24,03,08,5.90
2012,06,24,03,09,5.90
2012,06,24,03,10,5.90
2012,06,24,03,11,5.90
2012,06,24,03,12,5.90
2012,06,24,03,13,5.90
2012,06,24,03,14,5.90
2012,06,24,03,15,5.90
2012,06,24,03,16,5.90
2012,06,24,03,17,5.90
2012,06,24,03,18,5.80
2012,06,24,03,19,5.80
2012,06,24,03,20,5.80
2012,06,24,03,21,5.80
2012,06,24,03,22,5.80
2012,06,24,03,23,5.80
2012,06,24,03,24,5.80
2012,06,24,03,25,5.80
2012,06,24,03,26,5.80
2012,06,24,03,27,5.80
2012,06,24,03,28,5.80
2012,06,24,03,29,5.80
2012,06,24,03,30,5.80
2012,06,24,03,31,5.80
2012,06,24,03,32,5.80
2012,06,24,03,33,5.80
2012,06,24,03,34,5.80
2012,06,24,03,35,5.80
2012,06,24,03,36,5.80
2012,06,24,03,37,5.80
2012,06,24,03,38,5.80
2012,06,24,03,39,5.80
2012,06,24,03,40,5.80
2012,06,24,03,41,5.80
2012,06,24,03,42,5.80
2012,06,24,03,43,5.80
2012,06,24,03,44,5.80
2012,06,24,03,45,5.80
2012,06,24,03,46,5.80
2012,06,24,03,47,5.80
2012,06,24,03,48,5.80
2012,06,24,03,49,5.80
2012,06,24,03,50,5.80
2012,06,24,03,51,5.80
2012,06,24,03,52,5.80
2012,06,24,03,53,5.80
2012,06,24,03,54,5.80
2012,06,24,03,55,5.80
2012,06,24,03,56,5.80
2012,06,24,03,57,5.80
2012,06,24,03,58,5.80
2012,06,24,03,59,5.80
2012,06,24,04,00,5.80
2012,06,24,04,01,5.80
2012,06,24,04,02,5.80
2012,06,24,04,03,5.80
2012,06,24,04,04,5.80
2012,06,24,04,05,5.70
2012,06,24,04,06,5.70
2012,06,24,04,07,5.70
2012,06,24,04,08,5.70
2012,06,24,04,09,5.70
2012,06,24,04,10,5.70
2012,06,24,04,11,5.70
2012,06,24,04,12,5.70
2012,06,24,04,13,5.70
2012,06,24,04,14,5.70
2012,06,24,04,15,5.70
2012,06,24,04,16,5.70
2012,06,24,04,17,5.70
2012,06,24,04,18,5.70
2012,06,24,04,19,5.70
2012,06,24,04,20,5.70
2012,06,24,04,21,5.70
2012,06,24,04,22,5.70
2012,06,24,04,23,5.70
2012,06,24,04,24,5.80
2012,06,24,04,25,5.80
2012,06,24,04,26,5.80
2012,06,24,04,27,5.80
2012,06,24,04,28,5.80
2012,06,24,04,29,5.80
2012,06,24,04,30,5.90
2012,06,24,04,31,5.90
2012,06,24,04,32,5.90
2012,06,24,04,33,5.90
2012,06,24,04,34,5.90
2012,06,24,04,35,5.90
2012,06,24,04,36,6.00
2012,06,24,04,37,6.00
2012,06,24,04,38,6.00
2012,06,24,04,39,6.00
2012,06,24,04,40,6.00
2012,06,24,04,41,6.10
2012,06,24,04,42,6.10
2012,06,24,04,43,6.10
2012,06,24,04,44,6.10
2012,06,24,04,45,6.10
2012,06,24,04,46,6.10
2012,06,24,04,47,6.10
2012,06,24,04,48,6.10
2012,06,24,04,49,6.10
2012,06,24,04,50,6.10
2012,06,24,04,51,6.10
2012,06,24,04,52,6.10
2012,06,24,04,53,6.10
2012,06,24,04,54,6.10
2012,06,24,04,55,6.10
2012,06,24,04,56,6.00
2012,06,24,04,57,6.00
2012,06,24,04,58,6.00
2012,06,24,04,59,6.00
2012,06,24,05,00,6.00
2012,06,24,05,01,6.00
2012,06,24,05,02,6.00
2012,06,24,05,03,6.00
2012,06,24,05,04,6.00
2012,06,24,05,05,5.90
2012,06,24,05,06,5.90
2012,06,24,05,07,5.90
2012,06,24,05,08,5.90
2012,06,24,05,09,5.90
2012,06,24,05,10,5.90
2012,06,24,05,11,5.90
2012,06,24,05,12,5.90
2012,06,24,05,13,5.90
2012,06,24,05,14,5.90
2012,06,24,05,15,5.80
2012,06,24,05,16,5.80
2012,06,24,05,17,5.80
2012,06,24,05,18,5.80
2012,06,24,05,19,5.80
2012,06,24,05,20,5.70
2012,06,24,05,21,5.70
2012,06,24,05,22,5.70
2012,06,24,05,23,5.70
2012,06,24,05,24,5.70
2012,06,24,05,25,5.70
2012,06,24,05,26,5.70
2012,06,24,05,27,5.70
2012,06,24,05,28,5.70
2012,06,24,05,29,5.60
2012,06,24,05,30,5.60
2012,06,24,05,31,5.60
2012,06,24,05,32,5.60
2012,06,24,05,33,5.60
2012,06,24,05,34,5.60
2012,06,24,05,35,5.60
2012,06,24,05,36,5.60
2012,06,24,05,37,5.60
2012,06,24,05,38,5.60
2012,06,24,05,39,5.60
2012,06,24,05,40,5.60
2012,06,24,05,41,5.60
2012,06,24,05,42,5.60
2012,06,24,05,43,5.60
2012,06,24,05,44,5.60
2012,06,24,05,45,5.60
2012,06,24,05,46,5.60
2012,06,24,05,47,5.60
2012,06,24,05,48,5.60
2012,06,24,05,49,5.60
2012,06,24,05,50,5.60
2012,06,24,05,51,5.70
2012,06,24,05,52,5.70
2012,06,24,05,53,5.70
2012,06,24,05,54,5.70
2012,06,24,05,55,5.70
2012,06,24,05,56,5.70
2012,06,24,05,57,5.70
2012,06,24,05,58,5.70
2012,06,24,05,59,5.70
2012,06,24,06,00,5.70
2012,06,24,06,01,5.70
2012,06,24,06,02,5.70
2012,06,24,06,03,5.70
2012,06,24,06,04,5.70
2012,06,24,06,05,5.70
2012,06,24,06,06,5.70
2012,06,24,06,07,5.70
2012,06,24,06,08,5.70
2012,06,24,06,09,5.70
2012,06,24,06,10,5.70
2012,06,24,06,11,5.70
2012,06,24,06,12,5.70
2012,06,24,06,13,5.70
2012,06,24,06,14,5.70
2012,06,24,06,15,5.80
2012,06,24,06,16,5.80
2012,06,24,06,17,5.80
2012,06,24,06,18,5.80
2012,06,24,06,19,5.80
2012,06,24,06,20,5.90
2012,06,24,06,21,5.90
2012,06,24,06,22,5.90
2012,06,24,06,23,6.00
2012,06,24,06,24,6.00
2012,06,24,06,25,6.00
2012,06,24,06,26,6.10
2012,06,24,06,27,6.10
2012,06,24,06,28,6.20
2012,06,24,06,29,6.20
2012,06,24,06,30,6.20
2012,06,24,06,31,6.20
2012,06,24,06,32,6.20
2012,06,24,06,33,6.20
2012,06,24,06,34,6.20
2012,06,24,06,35,6.30
2012,06,24,06,36,6.30
2012,06,24,06,37,6.30
2012,06,24,06,38,6.30
2012,06,24,06,39,6.30
2012,06,24,06,40,6.40
2012,06,24,06,41,6.40
2012,06,24,06,42,6.40
2012,06,24,06,43,6.40
2012,06,24,06,44,6.40
2012,06,24,06,45,6.40
2012,06,24,06,46,6.40
2012,06,24,06,47,6.40
2012,06,24,06,48,6.40
2012,06,24,06,49,6.50
2012,06,24,06,50,6.60
2012,06,24,06,51,6.60
2012,06,24,06,52,6.60
2012,06,24,06,53,6.60
2012,06,24,06,54,6.60
2012,06,24,06,55,6.70
2012,06,24,06,56,6.70
2012,06,24,06,57,6.70
2012,06,24,06,58,6.80
2012,06,24,06,59,6.80
2012,06,24,07,00,6.80
2012,06,24,07,01,6.80
2012,06,24,07,02,6.90
2012,06,24,07,03,6.90
2012,06,24,07,04,7.00
2012,06,24,07,05,7.00
2012,06,24,07,06,7.10
2012,06,24,07,07,7.10
2012,06,24,07,08,7.10
2012,06,24,07,09,7.20
2012,06,24,07,10,7.20
2012,06,24,07,11,7.20
2012,06,24,07,12,7.20
2012,06,24,07,13,7.20
2012,06,24,07,14,7.20
2012,06,24,07,15,7.20
2012,06,24,07,16,7.20
2012,06,24,07,17,7.20
2012,06,24,07,18,7.20
2012,06,24,07,19,7.30
2012,06,24,07,20,7.30
2012,06,24,07,21,7.30
2012,06,24,07,22,7.30
2012,06,24,07,23,7.30
2012,06,24,07,24,7.30
2012,06,24,07,25,7.30
2012,06,24,07,26,7.30
2012,06,24,07,27,7.30
2012,06,24,07,28,7.40
2012,06,24,07,29,7.40
2012,06,24,07,30,7.50
2012,06,24,07,31,7.50
2012,06,24,07,32,7.60
2012,06,24,07,33,7.60
2012,06,24,07,34,7.70
2012,06,24,07,35,7.70
2012,06,24,07,36,7.80
2012,06,24,07,37,7.80
2012,06,24,07,38,7.80
2012,06,24,07,39,7.90
2012,06,24,07,40,7.90
2012,06,24,07,41,7.90
2012,06,24,07,42,7.90
2012,06,24,07,43,7.90
2012,06,24,07,44,8.00
2012,06,24,07,45,8.00
2012,06,24,07,46,8.10
2012,06,24,07,47,8.10
2012,06,24,07,48,8.10
2012,06,24,07,49,8.20
2012,06,24,07,50,8.20
2012,06,24,07,51,8.20
2012,06,24,07,52,8.20
2012,06,24,07,53,8.20
2012,06,24,07,54,8.30
2012,06,24,07,55,8.30
2012,06,24,07,56,8.30
2012,06,24,07,57,8.30
2012,06,24,07,58,8.30
2012,06,24,07,59,8.40
2012,06,24,08,00,8.40
2012,06,24,08,01,8.40
2012,06,24,08,02,8.50
2012,06,24,08,03,8.50
2012,06,24,08,04,8.50
2012,06,24,08,05,8.60
2012,06,24,08,06,8.60
2012,06,24,08,07,8.60
2012,06,24,08,08,8.70
2012,06,24,08,09,8.70
2012,06,24,08,10,8.70
2012,06,24,08,11,8.70
2012,06,24,08,12,8.80
2012,06,24,08,13,8.80
2012,06,24,08,14,8.90
2012,06,24,08,15,8.90
2012,06,24,08,16,9.00
2012,06,24,08,17,9.00
2012,06,24,08,18,9.10
2012,06,24,08,19,9.10
2012,06,24,08,20,9.10
2012,06,24,08,21,9.20
2012,06,24,08,22,9.20
2012,06,24,08,23,9.20
2012,06,24,08,24,9.20
2012,06,24,08,25,9.30
2012,06,24,08,26,9.30
2012,06,24,08,27,9.30
2012,06,24,08,28,9.40
2012,06,24,08,29,9.50
2012,06,24,08,30,9.50
2012,06,24,08,31,9.60
2012,06,24,08,32,9.70
2012,06,24,08,33,9.70
2012,06,24,08,34,9.80
2012,06,24,08,35,9.90
2012,06,24,08,36,9.90
2012,06,24,08,37,10.00
2012,06,24,08,38,10.00
2012,06,24,08,39,10.00
2012,06,24,08,40,10.10
2012,06,24,08,41,10.10
2012,06,24,08,42,10.10
2012,06,24,08,43,10.20
2012,06,24,08,44,10.30
2012,06,24,08,45,10.30
2012,06,24,08,46,10.40
2012,06,24,08,47,10.40
2012,06,24,08,48,10.40
2012,06,24,08,49,10.40
2012,06,24,08,50,10.50
2012,06,24,08,51,10.60
2012,06,24,08,52,10.60
2012,06,24,08,53,10.60
2012,06,24,08,54,10.60
2012,06,24,08,55,10.60
2012,06,24,08,56,10.70
2012,06,24,08,57,10.70
2012,06,24,08,58,10.70
2012,06,24,08,59,10.80
2012,06,24,09,00,10.80
2012,06,24,09,01,10.80
2012,06,24,09,02,10.90
2012,06,24,09,03,10.90
2012,06,24,09,04,10.90
2012,06,24,09,05,11.00
2012,06,24,09,06,11.10
2012,06,24,09,07,11.10
2012,06,24,09,08,11.10
2012,06,24,09,09,11.10
2012,06,24,09,10,11.20
2012,06,24,09,11,11.30
2012,06,24,09,12,11.30
2012,06,24,09,13,11.40
2012,06,24,09,14,11.40
2012,06,24,09,15,11.50
2012,06,24,09,16,11.60
2012,06,24,09,17,11.60
2012,06,24,09,18,11.60
2012,06,24,09,19,11.60
2012,06,24,09,20,11.60
2012,06,24,09,21,11.60
2012,06,24,09,22,11.60
2012,06,24,09,23,11.60
2012,06,24,09,24,11.60
2012,06,24,09,25,11.60
2012,06,24,09,26,11.60
2012,06,24,09,27,11.60
2012,06,24,09,28,11.60
2012,06,24,09,29,11.60
2012,06,24,09,30,11.70
2012,06,24,09,31,11.70
2012,06,24,09,32,11.80
2012,06,24,09,33,11.80
2012,06,24,09,34,11.90
2012,06,24,09,35,11.90
2012,06,24,09,36,11.90
2012,06,24,09,37,11.90
2012,06,24,09,38,11.90
2012,06,24,09,39,12.00
2012,06,24,09,40,12.10
2012,06,24,09,41,12.10
2012,06,24,09,42,12.20
2012,06,24,09,43,12.30
2012,06,24,09,44,12.40
2012,06,24,09,45,12.50
2012,06,24,09,46,12.50
2012,06,24,09,47,12.60
2012,06,24,09,48,12.60
2012,06,24,09,49,12.60
2012,06,24,09,50,12.60
2012,06,24,09,51,12.60
2012,06,24,09,52,12.60
2012,06,24,09,53,12.70
2012,06,24,09,54,12.70
2012,06,24,09,55,12.80
2012,06,24,09,56,12.80
2012,06,24,09,57,12.80
2012,06,24,09,58,12.90
2012,06,24,09,59,12.90
2012,06,24,10,00,12.90
2012,06,24,10,01,13.00
2012,06,24,10,02,13.10
2012,06,24,10,03,13.20
2012,06,24,10,04,13.30
2012,06,24,10,05,13.30
2012,06,24,10,06,13.30
2012,06,24,10,07,13.30
2012,06,24,10,08,13.30
2012,06,24,10,09,13.40
2012,06,24,10,10,13.40
2012,06,24,10,11,13.40
2012,06,24,10,12,13.40
2012,06,24,10,13,13.40
2012,06,24,10,14,13.50
2012,06,24,10,15,13.50
2012,06,24,10,16,13.50
2012,06,24,10,17,13.50
2012,06,24,10,18,13.50
2012,06,24,10,19,13.50
2012,06,24,10,20,13.60
2012,06,24,10,21,13.60
2012,06,24,10,22,13.70
2012,06,24,10,23,13.80
2012,06,24,10,24,13.90
2012,06,24,10,25,14.00
2012,06,24,10,26,14.10
2012,06,24,10,27,14.20
2012,06,24,10,28,14.30
2012,06,24,10,29,14.50
2012,06,24,10,30,14.60
2012,06,24,10,31,14.70
2012,06,24,10,32,14.80
2012,06,24,10,33,14.80
2012,06,24,10,34,14.90
2012,06,24,10,35,15.00
2012,06,24,10,36,15.10
2012,06,24,10,37,15.10
2012,06,24,10,38,15.10
2012,06,24,10,39,15.20
2012,06,24,10,40,15.20
2012,06,24,10,41,15.10
2012,06,24,10,42,15.00
2012,06,24,10,43,14.90
2012,06,24,10,44,15.00
2012,06,24,10,45,15.00
2012,06,24,10,46,15.00
2012,06,24,10,47,15.10
2012,06,24,10,48,15.20
2012,06,24,10,49,15.10
2012,06,24,10,50,15.10
2012,06,24,10,51,15.10
2012,06,24,10,52,15.20
2012,06,24,10,53,15.20
2012,06,24,10,54,15.20
2012,06,24,10,55,15.20
2012,06,24,10,56,15.10
2012,06,24,10,57,15.00
2012,06,24,10,58,15.00
2012,06,24,10,59,15.00
2012,06,24,11,00,15.10
2012,06,24,11,01,15.10
2012,06,24,11,02,15.20
2012,06,24,11,03,15.30
2012,06,24,11,04,15.30
2012,06,24,11,05,15.40
2012,06,24,11,06,15.50
2012,06,24,11,07,15.60
2012,06,24,11,08,15.60
2012,06,24,11,09,15.80
2012,06,24,11,10,15.80
2012,06,24,11,11,15.90
2012,06,24,11,12,16.00
2012,06,24,11,13,16.10
2012,06,24,11,14,16.20
2012,06,24,11,15,16.30
2012,06,24,11,16,16.30
2012,06,24,11,17,16.40
2012,06,24,11,18,16.40
2012,06,24,11,19,16.40
2012,06,24,11,20,16.30
2012,06,24,11,21,16.30
2012,06,24,11,22,16.20
2012,06,24,11,23,16.10
2012,06,24,11,24,16.00
2012,06,24,11,25,15.90
2012,06,24,11,26,15.80
2012,06,24,11,27,15.80
2012,06,24,11,28,15.80
2012,06,24,11,29,15.80
2012,06,24,11,30,15.80
2012,06,24,11,31,15.80
2012,06,24,11,32,15.80
2012,06,24,11,33,15.80
2012,06,24,11,34,15.80
2012,06,24,11,35,15.80
2012,06,24,11,36,15.70
2012,06,24,11,37,15.70
2012,06,24,11,38,15.70
2012,06,24,11,39,15.80
2012,06,24,11,40,15.80
2012,06,24,11,41,15.80
2012,06,24,11,42,15.80
2012,06,24,11,43,15.80
2012,06,24,11,44,15.80
2012,06,24,11,45,15.70
2012,06,24,11,46,15.70
2012,06,24,11,47,15.70
2012,06,24,11,48,15.60
2012,06,24,11,49,15.60
2012,06,24,11,50,15.50
2012,06,24,11,51,15.50
2012,06,24,11,52,15.50
2012,06,24,11,53,15.50
2012,06,24,11,54,15.50
2012,06,24,11,55,15.50
2012,06,24,11,56,15.50
2012,06,24,11,57,15.50
2012,06,24,11,58,15.50
2012,06,24,11,59,15.50
2012,06,24,12,00,15.50
2012,06,24,12,01,15.50
2012,06,24,12,02,15.60
2012,06,24,12,03,15.60
2012,06,24,12,04,15.50
2012,06,24,12,05,15.50
2012,06,24,12,06,15.50
2012,06,24,12,07,15.50
2012,06,24,12,08,15.50
2012,06,24,12,09,15.40
2012,06,24,12,10,15.40
2012,06,24,12,11,15.40
2012,06,24,12,12,15.30
2012,06,24,12,13,15.30
2012,06,24,12,14,15.30
2012,06,24,12,15,15.30
2012,06,24,12,16,15.30
2012,06,24,12,17,15.30
2012,06,24,12,18,15.30
2012,06,24,12,19,15.30
2012,06,24,12,20,15.30
2012,06,24,12,21,15.30
2012,06,24,12,22,15.30
2012,06,24,12,23,15.30
2012,06,24,12,24,15.40
2012,06,24,12,25,15.40
2012,06,24,12,26,15.50
2012,06,24,12,27,15.60
2012,06,24,12,28,15.60
2012,06,24,12,29,15.70
2012,06,24,12,30,15.80
2012,06,24,12,31,15.90
2012,06,24,12,32,15.90
2012,06,24,12,33,15.90
2012,06,24,12,34,16.00
2012,06,24,12,35,16.10
2012,06,24,12,36,16.10
2012,06,24,12,37,16.10
2012,06,24,12,38,16.10
2012,06,24,12,39,16.10
2012,06,24,12,40,16.10
2012,06,24,12,41,16.10
2012,06,24,12,42,16.10
2012,06,24,12,43,16.10
2012,06,24,12,44,16.10
2012,06,24,12,45,16.10
2012,06,24,12,46,16.10
2012,06,24,12,47,16.10
2012,06,24,12,48,16.10
2012,06,24,12,49,16.10
2012,06,24,12,50,16.10
2012,06,24,12,51,16.20
2012,06,24,12,52,16.20
2012,06,24,12,53,16.20
2012,06,24,12,54,16.20
2012,06,24,12,55,16.20
2012,06,24,12,56,16.20
2012,06,24,12,57,16.20
2012,06,24,12,58,16.20
2012,06,24,12,59,16.20
2012,06,24,13,00,16.30
2012,06,24,13,01,16.30
2012,06,24,13,02,16.30
2012,06,24,13,03,16.20
2012,06,24,13,04,16.20
2012,06,24,13,05,16.10
2012,06,24,13,06,16.20
2012,06,24,13,07,16.10
2012,06,24,13,08,16.10
2012,06,24,13,09,16.10
2012,06,24,13,10,16.10
2012,06,24,13,11,16.20
2012,06,24,13,12,16.30
2012,06,24,13,13,16.30
2012,06,24,13,14,16.30
2012,06,24,13,15,16.40
2012,06,24,13,16,16.40
2012,06,24,13,17,16.40
2012,06,24,13,18,16.40
2012,06,24,13,19,16.40
2012,06,24,13,20,16.40
2012,06,24,13,21,16.50
2012,06,24,13,22,16.60
2012,06,24,13,23,16.60
2012,06,24,13,24,16.50
2012,06,24,13,25,16.50
2012,06,24,13,26,16.40
2012,06,24,13,27,16.40
2012,06,24,13,28,16.40
2012,06,24,13,29,16.50
2012,06,24,13,30,16.60
2012,06,24,13,31,16.60
2012,06,24,13,32,16.60
2012,06,24,13,33,16.60
2012,06,24,13,34,16.50
2012,06,24,13,35,16.40
2012,06,24,13,36,16.30
2012,06,24,13,37,16.30
2012,06,24,13,38,16.40
2012,06,24,13,39,16.40
2012,06,24,13,40,16.40
2012,06,24,13,41,16.40
2012,06,24,13,42,16.40
2012,06,24,13,43,16.40
2012,06,24,13,44,16.40
2012,06,24,13,45,16.40
2012,06,24,13,46,16.40
2012,06,24,13,47,16.40
2012,06,24,13,48,16.30
2012,06,24,13,49,16.30
2012,06,24,13,50,16.30
2012,06,24,13,51,16.30
2012,06,24,13,52,16.30
2012,06,24,13,53,16.30
2012,06,24,13,54,16.30
2012,06,24,13,55,16.40
2012,06,24,13,56,16.40
2012,06,24,13,57,16.40
2012,06,24,13,58,16.40
2012,06,24,13,59,16.40
2012,06,24,14,00,16.50
2012,06,24,14,01,16.50
2012,06,24,14,02,16.40
2012,06,24,14,03,16.40
2012,06,24,14,04,16.40
2012,06,24,14,05,16.40
2012,06,24,14,06,16.30
2012,06,24,14,07,16.30
2012,06,24,14,08,16.30
2012,06,24,14,09,16.30
2012,06,24,14,10,16.30
2012,06,24,14,11,16.30
2012,06,24,14,12,16.40
2012,06,24,14,13,16.50
2012,06,24,14,14,16.60
2012,06,24,14,15,16.70
2012,06,24,14,16,16.70
2012,06,24,14,17,16.80
2012,06,24,14,18,16.80
2012,06,24,14,19,16.70
2012,06,24,14,20,16.70
2012,06,24,14,21,16.70
2012,06,24,14,22,16.70
2012,06,24,14,23,16.70
2012,06,24,14,24,16.70
2012,06,24,14,25,16.70
2012,06,24,14,26,16.70
2012,06,24,14,27,16.80
2012,06,24,14,28,16.80
2012,06,24,14,29,16.80
2012,06,24,14,30,16.80
2012,06,24,14,31,16.80
2012,06,24,14,32,16.90
2012,06,24,14,33,16.90
2012,06,24,14,34,16.90
2012,06,24,14,35,16.90
2012,06,24,14,36,16.90
2012,06,24,14,37,16.90
2012,06,24,14,38,16.90
2012,06,24,14,39,16.90
2012,06,24,14,40,16.90
2012,06,24,14,41,16.90
2012,06,24,14,42,16.90
2012,06,24,14,43,16.90
2012,06,24,14,44,16.90
2012,06,24,14,45,17.00
2012,06,24,14,46,17.10
2012,06,24,14,47,17.20
2012,06,24,14,48,17.20
2012,06,24,14,49,17.20
2012,06,24,14,50,17.20
2012,06,24,14,51,17.20
2012,06,24,14,52,17.20
2012,06,24,14,53,17.10
2012,06,24,14,54,17.00
2012,06,24,14,55,17.00
2012,06,24,14,56,16.90
2012,06,24,14,57,16.80
2012,06,24,14,58,16.70
2012,06,24,14,59,16.70
2012,06,24,15,00,16.70
2012,06,24,15,01,16.70
2012,06,24,15,02,16.70
2012,06,24,15,03,16.70
2012,06,24,15,04,16.70
2012,06,24,15,05,16.70
2012,06,24,15,06,16.70
2012,06,24,15,07,16.70
2012,06,24,15,08,16.70
2012,06,24,15,09,16.70
2012,06,24,15,10,16.70
2012,06,24,15,11,16.70
2012,06,24,15,12,16.60
2012,06,24,15,13,16.50
2012,06,24,15,14,16.40
2012,06,24,15,15,16.40
2012,06,24,15,16,16.50
2012,06,24,15,17,16.60
2012,06,24,15,18,16.60
2012,06,24,15,19,16.60
2012,06,24,15,20,16.60
2012,06,24,15,21,16.70
2012,06,24,15,22,16.70
2012,06,24,15,23,16.60
2012,06,24,15,24,16.60
2012,06,24,15,25,16.60
2012,06,24,15,26,16.60
2012,06,24,15,27,16.70
2012,06,24,15,28,16.70
2012,06,24,15,29,16.60
2012,06,24,15,30,16.60
2012,06,24,15,31,16.70
2012,06,24,15,32,16.70
2012,06,24,15,33,16.90
2012,06,24,15,34,16.90
2012,06,24,15,35,16.90
2012,06,24,15,36,16.90
2012,06,24,15,37,16.90
2012,06,24,15,38,16.90
2012,06,24,15,39,16.90
2012,06,24,15,40,16.90
2012,06,24,15,41,17.00
2012,06,24,15,42,17.00
2012,06,24,15,43,17.00
2012,06,24,15,44,17.00
2012,06,24,15,45,17.00
2012,06,24,15,46,17.10
2012,06,24,15,47,17.10
2012,06,24,15,48,17.20
2012,06,24,15,49,17.20
2012,06,24,15,50,17.20
2012,06,24,15,51,17.20
2012,06,24,15,52,17.20
2012,06,24,15,53,17.20
2012,06,24,15,54,17.20
2012,06,24,15,55,17.20
2012,06,24,15,56,17.20
2012,06,24,15,57,17.20
2012,06,24,15,58,17.20
2012,06,24,15,59,17.20
2012,06,24,16,00,17.20
2012,06,24,16,01,17.20
2012,06,24,16,02,17.10
2012,06,24,16,03,17.10
2012,06,24,16,04,17.10
2012,06,24,16,05,17.00
2012,06,24,16,06,16.90
2012,06,24,16,07,16.90
2012,06,24,16,08,16.90
2012,06,24,16,09,16.90
2012,06,24,16,10,16.90
2012,06,24,16,11,16.90
2012,06,24,16,12,16.90
2012,06,24,16,13,16.90
2012,06,24,16,14,16.90
2012,06,24,16,15,16.80
2012,06,24,16,16,16.70
2012,06,24,16,17,16.70
2012,06,24,16,18,16.60
2012,06,24,16,19,16.50
2012,06,24,16,20,16.40
2012,06,24,16,21,16.40
2012,06,24,16,22,16.30
2012,06,24,16,23,16.20
2012,06,24,16,24,16.10
2012,06,24,16,25,16.10
2012,06,24,16,26,16.00
2012,06,24,16,27,15.90
2012,06,24,16,28,15.80
2012,06,24,16,29,15.80
2012,06,24,16,30,15.80
2012,06,24,16,31,15.70
2012,06,24,16,32,15.70
2012,06,24,16,33,15.70
2012,06,24,16,34,15.70
2012,06,24,16,35,15.70
2012,06,24,16,36,15.70
2012,06,24,16,37,15.70
2012,06,24,16,38,15.70
2012,06,24,16,39,15.70
2012,06,24,16,40,15.70
2012,06,24,16,41,15.70
2012,06,24,16,42,15.70
2012,06,24,16,43,15.70
2012,06,24,16,44,15.70
2012,06,24,16,45,15.70
2012,06,24,16,46,15.70
2012,06,24,16,47,15.70
2012,06,24,16,48,15.70
2012,06,24,16,49,15.70
2012,06,24,16,50,15.70
2012,06,24,16,51,15.80
2012,06,24,16,52,15.80
2012,06,24,16,53,15.80
2012,06,24,16,54,15.80
2012,06,24,16,55,15.80
2012,06,24,16,56,15.80
2012,06,24,16,57,15.80
2012,06,24,16,58,15.80
2012,06,24,16,59,15.80
2012,06,24,17,00,15.80
2012,06,24,17,01,15.80
2012,06,24,17,02,15.80
2012,06,24,17,03,15.80
2012,06,24,17,04,15.80
2012,06,24,17,05,15.80
2012,06,24,17,06,15.80
2012,06,24,17,07,15.80
2012,06,24,17,08,15.80
2012,06,24,17,09,15.80
2012,06,24,17,10,15.80
2012,06,24,17,11,15.80
2012,06,24,17,12,15.80
2012,06,24,17,13,15.80
2012,06,24,17,14,15.80
2012,06,24,17,15,15.80
2012,06,24,17,16,15.80
2012,06,24,17,17,15.80
2012,06,24,17,18,15.80
2012,06,24,17,19,15.80
2012,06,24,17,20,15.80
2012,06,24,17,21,15.80
2012,06,24,17,22,15.80
2012,06,24,17,23,15.80
2012,06,24,17,24,15.80
2012,06,24,17,25,15.90
2012,06,24,17,26,15.90
2012,06,24,17,27,15.90
2012,06,24,17,28,15.90
2012,06,24,17,29,15.90
2012,06,24,17,30,16.00
2012,06,24,17,31,16.10
2012,06,24,17,32,16.10
2012,06,24,17,33,16.10
2012,06,24,17,34,16.10
2012,06,24,17,35,16.20
2012,06,24,17,36,16.20
2012,06,24,17,37,16.20
2012,06,24,17,38,16.20
2012,06,24,17,39,16.20
2012,06,24,17,40,16.20
2012,06,24,17,41,16.30